Index,.RFTREES1,.TRX50ZEPE
31-03-2005,100,87.1
01-04-2005,100,87.17
04-04-2005,99.3804,86.71
05-04-2005,100.1633,87.47
06-04-2005,100.7659,87.74
07-04-2005,101.0558,88.16
08-04-2005,101.3057,88.12
11-04-2005,101.1233,87.81
12-04-2005,100.6408,87.37
13-04-2005,100.8277,87.78
14-04-2005,100.5476,87.72
15-04-2005,98.6081,86.12
18-04-2005,96.5159,84.28
19-04-2005,96.9442,84.5
20-04-2005,96.6836,84.15
21-04-2005,96.9506,84.29
22-04-2005,97.4779,85.12
25-04-2005,97.6563,85.39
26-04-2005,97.4037,85.3
27-04-2005,95.7689,84.28
28-04-2005,95.349,83.86
29-04-2005,95.5107,83.93
02-05-2005,96.0956,84.38
03-05-2005,96.6231,84.77
04-05-2005,97.1527,85.34
05-05-2005,97.7126,86.03
06-05-2005,98.0165,86.5
09-05-2005,97.7993,86.14
10-05-2005,97.1275,85.5
11-05-2005,97.0701,85.19
12-05-2005,97.3655,85.79
13-05-2005,97.7327,85.78
16-05-2005,97.5054,85.58
17-05-2005,97.2647,85.47
18-05-2005,98.8382,86.83
19-05-2005,99.2743,87.25
20-05-2005,99.4589,87.31
23-05-2005,100.202,88.01
24-05-2005,99.9065,87.84
25-05-2005,100.0983,87.72
26-05-2005,100.8181,88.45
27-05-2005,100.8353,88.38
30-05-2005,101.3697,88.75
31-05-2005,101.0619,88.25
01-06-2005,102.6244,89.53
02-06-2005,102.8678,89.72
03-06-2005,102.3234,89.35
06-06-2005,101.8419,88.96
07-06-2005,102.9762,89.86
08-06-2005,102.9841,89.55
09-06-2005,102.8607,89.47
10-06-2005,103.5718,90.05
13-06-2005,103.7146,90.45
14-06-2005,103.7258,90.59
15-06-2005,103.1567,90.01
16-06-2005,103.7072,90.38
17-06-2005,104.0679,90.81
20-06-2005,103.5737,90.36
21-06-2005,104.1814,90.48
22-06-2005,104.4342,90.57
23-06-2005,104.6998,91.08
24-06-2005,103.8274,90.31
27-06-2005,102.8049,89.5
28-06-2005,103.5742,90.45
29-06-2005,104.1214,90.89
30-06-2005,104.1961,91.01
01-07-2005,105.2016,91.74
04-07-2005,105.0551,91.98
05-07-2005,104.859,91.72
06-07-2005,105.2919,92.22
07-07-2005,103.6503,90.68
08-07-2005,105.0647,92.27
11-07-2005,105.8126,92.81
12-07-2005,105.5765,92.65
13-07-2005,106.2805,93.29
14-07-2005,106.8755,93.82
15-07-2005,106.8536,93.86
18-07-2005,106.6214,93.78
19-07-2005,108.1168,94.8
20-07-2005,108.0614,94.44
21-07-2005,108.3921,94.22
22-07-2005,108.3902,93.96
25-07-2005,108.2562,94.15
26-07-2005,108.2219,94.45
27-07-2005,108.6691,94.56
28-07-2005,108.9654,94.98
29-07-2005,108.7096,95.03
01-08-2005,108.8708,94.97
02-08-2005,109.587,95.71
03-08-2005,109.5979,95.63
04-08-2005,108.7048,94.74
05-08-2005,107.9781,94
08-08-2005,108.1892,94.38
09-08-2005,108.9198,95.48
10-08-2005,109.9666,96.57
11-08-2005,109.3279,96.18
12-08-2005,108.5274,95.63
15-08-2005,108.3008,95.48
16-08-2005,107.6395,94.8
17-08-2005,107.5906,94.51
18-08-2005,107.0244,94.26
19-08-2005,108.1637,95.41
22-08-2005,108.3554,95.39
23-08-2005,107.6853,94.63
24-08-2005,107.4437,94.47
25-08-2005,106.6431,93.49
26-08-2005,105.8655,92.61
29-08-2005,106.1225,92.93
30-08-2005,106.0135,92.87
31-08-2005,107.0096,93.75
01-09-2005,107.4243,94.32
02-09-2005,107.2601,94.16
05-09-2005,107.9068,94.89
06-09-2005,108.7878,95.77
07-09-2005,109.0752,95.86
08-09-2005,108.8136,95.71
09-09-2005,109.3671,96.08
12-09-2005,109.5183,96.02
13-09-2005,109.0319,95.24
14-09-2005,109.3524,95.59
15-09-2005,109.3146,95.74
16-09-2005,110.1442,96.53
19-09-2005,110.0218,96.48
20-09-2005,110.3713,96.93
21-09-2005,109.3719,95.67
22-09-2005,108.5325,95.47
23-09-2005,109.1971,95.73
26-09-2005,110.8596,97.56
27-09-2005,110.3898,97.12
28-09-2005,111.3174,98.32
29-09-2005,110.9491,97.99
30-09-2005,111.7476,98.41
03-10-2005,112.5021,98.97
04-10-2005,113.1014,99.24
05-10-2005,111.889,97.96
06-10-2005,110.5238,96.73
07-10-2005,110.1206,96.44
10-10-2005,110.4133,96.62
11-10-2005,110.3939,96.79
12-10-2005,109.4317,96.03
13-10-2005,108.1423,95.23
14-10-2005,108.7355,95.64
17-10-2005,108.6049,95.96
18-10-2005,108.0768,95.27
19-10-2005,106.2076,93.69
20-10-2005,106.3489,93.91
21-10-2005,105.9939,93.35
24-10-2005,107.2065,94.54
25-10-2005,106.8094,94.05
26-10-2005,107.0317,94.45
27-10-2005,105.2884,92.89
28-10-2005,105.2254,93.05
31-10-2005,107.2685,95.11
01-11-2005,107.1801,94.93
02-11-2005,107.5941,95.12
03-11-2005,108.5442,96.26
04-11-2005,108.4181,96.1
07-11-2005,108.8404,96.26
08-11-2005,108.877,96.25
09-11-2005,109.1228,96.11
10-11-2005,108.9239,96.11
11-11-2005,110.0525,97.18
14-11-2005,110.3317,97.43
15-11-2005,110.0401,97.49
16-11-2005,109.3396,96.86
17-11-2005,109.6646,97.31
18-11-2005,110.2026,97.96
21-11-2005,110.4089,98.64
22-11-2005,110.3123,98.77
23-11-2005,110.9005,99.26
24-11-2005,110.7576,98.87
25-11-2005,111.0758,99.06
28-11-2005,110.5774,98.62
29-11-2005,111.1035,98.88
30-11-2005,110.6819,98.31
01-12-2005,112.3479,99.87
02-12-2005,112.9451,100.49
05-12-2005,112.4136,99.97
06-12-2005,113.2169,100.44
07-12-2005,113.056,100.14
08-12-2005,113.0969,100.27
09-12-2005,112.659,99.97
12-12-2005,112.7944,100.18
13-12-2005,112.824,100.68
14-12-2005,112.5954,100.36
15-12-2005,112.5783,100.35
16-12-2005,113.3835,101.24
19-12-2005,113.0753,100.97
20-12-2005,112.9012,101.19
21-12-2005,113.8874,102.1
22-12-2005,113.79,102.03
23-12-2005,114.0716,102.22
23-12-2005,114.0716,102.22
27-12-2005,114.4794,102.13
28-12-2005,114.2309,102.29
29-12-2005,114.4755,102.58
30-12-2005,113.7112,101.6
02-01-2006,114.4808,102.28
03-01-2006,114.8001,102.64
04-01-2006,115.7307,103.64
05-01-2006,115.5586,103.52
06-01-2006,116.1112,104
09-01-2006,116.5105,104.18
10-01-2006,115.7174,103.47
11-01-2006,116.4258,104.1
12-01-2006,116.6868,104.25
13-01-2006,115.7318,103.09
16-01-2006,116.2127,103.63
17-01-2006,115.0395,102.7
18-01-2006,114.3617,101.65
19-01-2006,115.4302,102.01
20-01-2006,114.3252,101.05
23-01-2006,114.2117,100.84
24-01-2006,113.9944,100.59
25-01-2006,114.9293,101.82
26-01-2006,116.4506,103.51
27-01-2006,118.2766,104.83
30-01-2006,118.3947,104.78
31-01-2006,118.0717,105.18
01-02-2006,119.3138,106.13
02-02-2006,118.172,104.6
03-02-2006,118.4675,104.49
06-02-2006,118.9786,104.62
07-02-2006,118.9064,104.42
08-02-2006,118.9427,104.07
09-02-2006,119.7634,105.5
10-02-2006,118.9405,104.56
13-02-2006,119.5311,105.37
14-02-2006,119.523,105.43
15-02-2006,119.6605,105.4
16-02-2006,120.2819,105.99
17-02-2006,120.5632,106.35
20-02-2006,120.6294,106.37
21-02-2006,120.9932,106.72
22-02-2006,121.5241,107.63
23-02-2006,121.1345,107.45
24-02-2006,121.3402,107.79
27-02-2006,121.5957,108.2
28-02-2006,119.8266,106.36
01-03-2006,121.2555,107.34
02-03-2006,120.2304,106.16
03-03-2006,119.9925,105.42
06-03-2006,120.6646,105.87
07-03-2006,120.0939,105.6
08-03-2006,119.2753,105.14
09-03-2006,120.2664,105.97
10-03-2006,121.402,107.03
13-03-2006,121.8563,107.69
14-03-2006,121.9871,107.94
15-03-2006,122.3938,108.16
16-03-2006,122.5937,107.98
17-03-2006,122.9914,107.75
20-03-2006,123.3045,107.93
21-03-2006,123.6319,108
22-03-2006,124.0085,108.5
23-03-2006,124.5082,108.26
24-03-2006,124.5989,108.65
27-03-2006,123.6667,107.52
28-03-2006,122.957,107.13
29-03-2006,123.4501,107.64
30-03-2006,124.5947,108.95
31-03-2006,124.1408,108.37
03-04-2006,124.9724,109.05
04-04-2006,124.4676,108.29
05-04-2006,124.871,108.68
06-04-2006,125.4338,108.67
07-04-2006,124.3864,107.9
10-04-2006,124.7909,108.52
11-04-2006,123.3703,107.18
12-04-2006,122.8316,106.82
13-04-2006,123.1565,106.84
13-04-2006,123.1565,106.84
13-04-2006,123.1565,106.84
18-04-2006,123.0021,106.74
19-04-2006,124.6809,108.07
20-04-2006,125.9016,109.03
21-04-2006,127.1483,109.84
24-04-2006,126.8194,109.26
25-04-2006,126.8672,109.34
26-04-2006,126.889,109.72
27-04-2006,126.2959,109.13
28-04-2006,125.6549,108.31
28-04-2006,125.6549,108.31
02-05-2006,126.455,109.01
03-05-2006,125.8745,107.9
04-05-2006,126.9729,108.45
05-05-2006,128.1268,109.2
08-05-2006,127.9988,109.2
09-05-2006,128.1094,109.55
10-05-2006,127.8102,108.67
11-05-2006,126.8074,108.1
12-05-2006,123.996,105.7
15-05-2006,122.2316,104.6
16-05-2006,122.2541,105.09
17-05-2006,118.6992,101.77
18-05-2006,118.1997,101.61
19-05-2006,118.2524,102.19
22-05-2006,114.8035,99.91
23-05-2006,117.8686,102.03
24-05-2006,116.9819,100.7
25-05-2006,118.282,102.39
26-05-2006,120.2721,104.09
29-05-2006,120.0511,103.57
30-05-2006,117.8097,101.25
31-05-2006,119.0389,102.35
01-06-2006,119.7643,102.67
02-06-2006,119.8137,102.34
05-06-2006,119.0553,101.61
06-06-2006,116.6704,99.54
07-06-2006,117.5138,100.36
08-06-2006,114.2653,97.66
09-06-2006,115.7584,99.21
12-06-2006,114.8896,98.13
13-06-2006,112.6059,96.16
14-06-2006,112.6555,96.27
15-06-2006,114.944,98.38
16-06-2006,114.3361,97.66
19-06-2006,115.1366,98.28
20-06-2006,115.5309,98.95
21-06-2006,115.7682,99.26
22-06-2006,116.521,99.83
23-06-2006,116.6386,100.09
26-06-2006,116.5263,99.73
27-06-2006,115.6518,98.97
28-06-2006,115.5402,99.07
29-06-2006,117.6588,101.1
30-06-2006,119.2957,102.94
03-07-2006,119.8999,103.33
04-07-2006,120.0886,103.47
05-07-2006,118.8583,102.09
06-07-2006,119.8905,103.21
07-07-2006,119.3884,103.01
10-07-2006,119.785,103.42
11-07-2006,118.3712,102.21
12-07-2006,119.05,102.57
13-07-2006,117.244,100.74
14-07-2006,115.6434,99.4
17-07-2006,115.1518,99.09
18-07-2006,115.023,98.9
19-07-2006,117.7797,101.27
20-07-2006,118.2204,101.49
21-07-2006,116.5533,100.63
24-07-2006,118.7446,102.61
25-07-2006,118.8545,102.62
26-07-2006,118.99,103.11
27-07-2006,119.8935,104.31
28-07-2006,120.6662,105.05
31-07-2006,120.2589,104.51
01-08-2006,119.2379,103.2
02-08-2006,120.4931,104.56
03-08-2006,119.6711,103.63
04-08-2006,120.7933,104.97
07-08-2006,119.2561,103.43
08-08-2006,119.0329,103.58
09-08-2006,119.8183,104.69
10-08-2006,118.9623,103.88
11-08-2006,119.15,103.88
14-08-2006,120.2333,104.96
15-08-2006,121.2414,106.18
16-08-2006,122.2262,106.78
17-08-2006,122.551,106.88
18-08-2006,122.4688,106.76
21-08-2006,121.9964,106.46
22-08-2006,122.6426,106.84
23-08-2006,121.8238,106.01
24-08-2006,122.356,106.66
25-08-2006,122.3102,106.61
28-08-2006,123.1427,107.31
29-08-2006,123.2493,107.16
30-08-2006,123.6255,107.44
31-08-2006,123.3835,107.17
01-09-2006,123.7847,107.51
04-09-2006,124.3544,107.88
05-09-2006,123.8182,107.38
06-09-2006,122.6855,106.1
07-09-2006,121.8577,105.23
08-09-2006,122.3754,105.4
11-09-2006,122.0417,105.06
12-09-2006,123.5419,106.21
13-09-2006,124.0307,106.61
14-09-2006,123.9992,106.42
15-09-2006,124.6329,106.74
18-09-2006,124.508,106.73
19-09-2006,123.6695,106.08
20-09-2006,124.9811,107.51
21-09-2006,125.3646,107.84
22-09-2006,124.2731,106.72
25-09-2006,124.1284,106.86
26-09-2006,125.7004,108.26
27-09-2006,127.078,108.96
28-09-2006,127.1928,109.05
29-09-2006,127.5559,109.18
02-10-2006,127.1353,108.9
03-10-2006,126.8866,108.51
04-10-2006,127.3711,109.35
05-10-2006,128.0099,110.1
06-10-2006,127.9407,110.2
09-10-2006,128.0764,110.31
10-10-2006,128.685,110.89
11-10-2006,129.2509,111.03
12-10-2006,130.1273,111.87
13-10-2006,130.4672,111.99
16-10-2006,130.8178,112.14
17-10-2006,129.3912,110.94
18-10-2006,130.4479,112.03
19-10-2006,130.5541,111.84
20-10-2006,130.8965,112.15
23-10-2006,131.4185,112.72
24-10-2006,131.442,112.66
25-10-2006,132.0131,112.83
26-10-2006,132.2702,113.19
27-10-2006,131.9654,112.89
30-10-2006,131.4088,112.45
31-10-2006,131.5925,112.39
01-11-2006,131.8523,112.58
02-11-2006,131.1826,111.56
03-11-2006,131.8014,112.07
06-11-2006,133.0932,113.54
07-11-2006,133.5218,114.32
08-11-2006,133.6764,114.45
09-11-2006,134.0269,114.44
10-11-2006,134.0698,114.28
13-11-2006,134.5771,114.79
14-11-2006,134.3073,114.74
15-11-2006,135.1664,115.33
16-11-2006,135.6628,115.37
17-11-2006,134.396,114.31
20-11-2006,134.7167,114.71
21-11-2006,134.8246,114.77
22-11-2006,135.0304,114.73
23-11-2006,134.3876,114.58
24-11-2006,133.5374,113.47
27-11-2006,131.5148,111.68
28-11-2006,130.9954,111.54
29-11-2006,133.0374,112.83
30-11-2006,131.9124,111.88
01-12-2006,130.8116,110.45
04-12-2006,131.3617,111.12
05-12-2006,132.6239,112.41
06-12-2006,132.5391,112.25
07-12-2006,133.1532,112.73
08-12-2006,133.134,112.72
11-12-2006,133.7269,113.58
12-12-2006,134.0171,113.65
13-12-2006,135.2434,114.54
14-12-2006,135.7948,115.22
15-12-2006,136.4181,115.81
18-12-2006,136.3262,115.5
19-12-2006,135.4802,114.69
20-12-2006,135.988,115.11
21-12-2006,135.6291,114.9
22-12-2006,134.5201,113.87
22-12-2006,134.5201,113.87
22-12-2006,134.5201,113.87
27-12-2006,136.0735,115.48
28-12-2006,136.0481,115.47
29-12-2006,135.8593,115.22
29-12-2006,135.8593,115.22
02-01-2007,137.426,116.85
03-01-2007,137.3152,116.96
04-01-2007,136.7742,116.55
05-01-2007,135.6958,115.11
08-01-2007,135.906,114.99
09-01-2007,136.3469,115.09
10-01-2007,135.6789,114.04
11-01-2007,137.5836,116.03
12-01-2007,138.1962,116.28
15-01-2007,138.6551,116.76
16-01-2007,138.3078,116.26
17-01-2007,137.8335,115.63
18-01-2007,137.8873,115.48
19-01-2007,139.0308,116.38
22-01-2007,138.4991,115.55
23-01-2007,137.8949,115.56
24-01-2007,139.4341,116.87
25-01-2007,138.8558,116.57
26-01-2007,138.1626,115.86
29-01-2007,138.6633,116.27
30-01-2007,139.2404,117.04
31-01-2007,138.6044,116.56
01-02-2007,139.8462,117.64
02-02-2007,139.9972,118.02
05-02-2007,140.0787,118.09
06-02-2007,140.097,118.17
07-02-2007,140.8563,118.61
08-02-2007,140.0084,117.84
09-02-2007,140.6548,118.4
12-02-2007,139.7138,117.47
13-02-2007,140.4049,118.14
14-02-2007,141.4215,119.04
15-02-2007,141.4837,118.84
16-02-2007,141.2335,118.51
19-02-2007,141.9129,119.04
20-02-2007,141.3392,118.51
21-02-2007,140.7837,118.01
22-02-2007,141.5475,118.35
23-02-2007,141.9655,118.52
26-02-2007,142.7369,119.44
27-02-2007,138.162,116.32
28-02-2007,136.5253,114.29
01-03-2007,134.6069,113.04
02-03-2007,134.7031,112.33
05-03-2007,133.0602,111.34
06-03-2007,133.5173,112.23
07-03-2007,134.3348,112.56
08-03-2007,136.288,114.25
09-03-2007,136.6509,114.45
12-03-2007,136.1594,113.75
13-03-2007,134.8381,112.44
14-03-2007,131.6651,109.51
15-03-2007,133.9674,111.6
16-03-2007,134.0513,111.6
19-03-2007,135.6669,113.38
20-03-2007,136.5277,114.04
21-03-2007,136.9662,114.12
22-03-2007,138.7039,116.54
23-03-2007,139.8264,117.18
26-03-2007,138.8968,115.95
27-03-2007,138.6251,116.29
28-03-2007,138.0131,115.65
29-03-2007,139.9954,117.06
30-03-2007,139.9804,117.11
02-04-2007,140.8226,117.38
03-04-2007,142.2098,118.87
04-04-2007,142.953,119.29
05-04-2007,142.9022,119.59
05-04-2007,142.9022,119.59
05-04-2007,142.9022,119.59
10-04-2007,143.5117,120.34
11-04-2007,143.2645,120.16
12-04-2007,142.8015,119.76
13-04-2007,144.0049,120.87
16-04-2007,145.2763,122.47
17-04-2007,145.0372,122.58
18-04-2007,143.9939,121.87
19-04-2007,143.9255,121.35
20-04-2007,145.3436,123.52
23-04-2007,145.4471,123.12
24-04-2007,144.1809,122.16
25-04-2007,145.4886,123.12
26-04-2007,145.9846,123.31
27-04-2007,145.458,122.46
30-04-2007,145.4205,122.72
30-04-2007,145.4205,122.72
02-05-2007,145.9757,123.34
03-05-2007,146.4798,123.75
04-05-2007,147.9657,124.41
07-05-2007,148.0636,124.39
08-05-2007,146.4568,123.51
09-05-2007,146.4162,123.9
10-05-2007,145.5592,122.95
11-05-2007,146.3547,123.7
14-05-2007,146.2616,123.48
15-05-2007,147.3206,124.23
16-05-2007,147.1808,123.46
17-05-2007,147.7115,123.77
18-05-2007,149.2072,125.42
21-05-2007,149.6666,125.15
22-05-2007,150.086,125.31
23-05-2007,150.8573,126.12
24-05-2007,150.0672,124.86
25-05-2007,150.1678,125.1
28-05-2007,150.4485,125.33
29-05-2007,150.8536,125.25
30-05-2007,150.2761,125.03
31-05-2007,152.101,126.39
01-06-2007,153.9384,127.65
04-06-2007,153.433,127.28
05-06-2007,152.3715,126.74
06-06-2007,149.4223,124.75
07-06-2007,148.1181,123.17
08-06-2007,147.6857,123.07
11-06-2007,149.0627,124.07
12-06-2007,148.1959,123.16
13-06-2007,148.5897,123.83
14-06-2007,151.6211,126.26
15-06-2007,153.4997,128.07
18-06-2007,153.2181,127.57
19-06-2007,152.6444,127.56
20-06-2007,153.2412,128.06
21-06-2007,151.7976,126.58
22-06-2007,151.5601,126.14
25-06-2007,150.7914,125.89
26-06-2007,149.8403,124.74
27-06-2007,149.0034,124.08
28-06-2007,150.7079,125.47
29-06-2007,151.3067,126.46
02-07-2007,151.2872,126.11
03-07-2007,152.5192,127.2
04-07-2007,153.3275,127.5
05-07-2007,152.1195,126.63
06-07-2007,153.0256,127.65
09-07-2007,153.3004,127.91
10-07-2007,151.6222,126.35
11-07-2007,150.7098,125.68
12-07-2007,152.9803,127.76
13-07-2007,153.374,128.4
16-07-2007,153.5822,128.64
17-07-2007,152.8279,128.06
18-07-2007,151.3104,126.17
19-07-2007,152.6539,127.57
20-07-2007,151.0509,125.47
23-07-2007,152.0357,126.6
24-07-2007,150.1625,124.57
25-07-2007,148.0063,123.22
26-07-2007,144.0393,120.23
27-07-2007,143.0877,119.76
30-07-2007,143.1588,119.68
31-07-2007,146.2472,121.82
01-08-2007,143.546,119.86
02-08-2007,144.6709,121.02
03-08-2007,142.8798,119.55
06-08-2007,141.5744,118.35
07-08-2007,142.8503,120.26
08-08-2007,145.8193,122.68
09-08-2007,143.4177,120.1
10-08-2007,139.3212,117.24
13-08-2007,142.125,119.61
14-08-2007,141.0308,118.06
15-08-2007,140.7549,117.66
16-08-2007,136.0827,114.11
17-08-2007,137.9015,116.63
20-08-2007,139.1483,117.14
21-08-2007,139.5627,117.2
22-08-2007,141.8489,118.79
23-08-2007,141.8144,118.81
24-08-2007,142.8839,119.48
27-08-2007,143.0102,119.45
28-08-2007,140.6651,117.53
29-08-2007,141.5076,118.22
30-08-2007,143.4093,119.75
31-08-2007,145.0112,121.31
03-09-2007,145.3387,121.37
04-09-2007,145.8502,122.21
05-09-2007,143.2161,119.92
06-09-2007,143.7631,120.56
07-09-2007,140.6162,117.96
10-09-2007,139.8128,117.13
11-09-2007,141.6808,118.85
12-09-2007,142.0613,119.2
13-09-2007,142.9849,120.64
14-09-2007,142.5577,119.93
17-09-2007,141.0899,118.8
18-09-2007,143.5769,121.06
19-09-2007,146.8969,124.7
20-09-2007,146.2305,124.25
21-09-2007,146.6496,124.61
24-09-2007,147.234,124.42
25-09-2007,145.813,123.38
26-09-2007,147.0982,124.3
27-09-2007,147.5796,124.89
28-09-2007,147.0449,124.77
01-10-2007,148.1013,125.46
02-10-2007,148.8136,125.62
03-10-2007,149.1265,125.27
04-10-2007,148.7088,125.14
05-10-2007,150.0051,126.16
08-10-2007,149.6304,125.62
09-10-2007,150.5925,126.06
10-10-2007,150.9568,126.01
11-10-2007,151.9415,126.92
12-10-2007,151.9396,127.09
15-10-2007,149.7979,126.27
16-10-2007,149.2246,125.99
17-10-2007,150.4321,126.54
18-10-2007,149.9413,125.92
19-10-2007,149.4068,125.63
22-10-2007,147.7109,123.99
23-10-2007,148.8438,124.56
24-10-2007,147.8817,124.08
25-10-2007,149.5196,125.46
26-10-2007,150.2611,126.37
29-10-2007,151.0578,127.36
30-10-2007,150.5245,126.86
31-10-2007,151.6664,127.45
01-11-2007,149.4266,125.17
02-11-2007,149.0591,125.12
05-11-2007,148.4484,124.7
06-11-2007,149.0443,125.1
07-11-2007,148.3165,125.16
08-11-2007,147.524,124.3
09-11-2007,145.4809,122.49
12-11-2007,146.074,122.32
13-11-2007,146.212,122.38
14-11-2007,146.8854,123.05
15-11-2007,145.707,122.09
16-11-2007,144.8236,121.68
19-11-2007,142.5532,120.36
20-11-2007,143.7095,121.7
21-11-2007,140.6164,119.85
22-11-2007,140.9755,120.16
23-11-2007,142.5808,121.48
26-11-2007,141.9598,120.67
27-11-2007,141.4442,120.17
28-11-2007,144.5023,122.62
29-11-2007,144.958,123.33
30-11-2007,146.2546,124.51
03-12-2007,145.5439,123.92
04-12-2007,143.7206,123.15
05-12-2007,145.879,125.07
06-12-2007,145.7686,125.21
07-12-2007,146.9204,126.12
10-12-2007,148.085,126.4
11-12-2007,147.7833,126.08
12-12-2007,147.9831,126.61
13-12-2007,145.0186,124.05
14-12-2007,145.5868,124.47
17-12-2007,143.2733,122.68
18-12-2007,143.2981,122.52
19-12-2007,142.6108,122.47
20-12-2007,142.8406,122.93
21-12-2007,144.7334,124.83
24-12-2007,145.1574,124.94
24-12-2007,145.1574,124.94
24-12-2007,145.1574,124.94
27-12-2007,145.074,125.39
28-12-2007,144.927,125.37
31-12-2007,144.5799,125.31
31-12-2007,144.5799,125.31
02-01-2008,143.0711,123.77
03-01-2008,142.0771,123.75
04-01-2008,139.6026,122.22
07-01-2008,139.5911,122.66
08-01-2008,140.2899,122.96
09-01-2008,138.5817,121.96
10-01-2008,137.3424,121.26
11-01-2008,136.7625,120.78
14-01-2008,137.1126,120.98
15-01-2008,133.2852,118.36
16-01-2008,131.5562,117.14
17-01-2008,130.7312,116.03
18-01-2008,128.9219,113.97
21-01-2008,121.3818,105.9
22-01-2008,122.9126,107.06
23-01-2008,118.68,102.34
24-01-2008,125.9262,108.63
25-01-2008,125.8325,108
28-01-2008,124.8235,107.81
29-01-2008,127.2962,108.87
30-01-2008,126.0119,108.15
31-01-2008,125.5021,108.1
01-02-2008,127.7572,110
04-02-2008,128.3173,110.13
05-02-2008,123.4276,106.21
06-02-2008,124.6742,107.47
07-02-2008,122.333,105.79
08-02-2008,122.2285,105.87
11-02-2008,121.2902,105.29
12-02-2008,125.1628,108.67
13-02-2008,125.8033,108.68
14-02-2008,125.9018,108.72
15-02-2008,123.4909,106.51
18-02-2008,125.7014,108.54
19-02-2008,126.3607,108.93
20-02-2008,124.5539,107.61
21-02-2008,125.2114,108.21
22-02-2008,123.821,107.29
25-02-2008,125.7058,108.79
26-02-2008,127.3411,110.26
27-02-2008,126.9499,110.15
28-02-2008,124.7279,108.14
29-02-2008,123.1286,106.56
03-03-2008,121.3565,105.26
04-03-2008,119.2978,103.66
05-03-2008,121.5186,105.55
06-03-2008,119.7604,103.92
07-03-2008,118.4473,102.73
10-03-2008,117.0314,101.93
11-03-2008,118.5448,103.54
12-03-2008,119.6211,104.67
13-03-2008,118.8192,103.27
14-03-2008,118.0567,102.4
17-03-2008,113.7972,98.76
18-03-2008,116.8205,102.08
19-03-2008,115.4587,101.38
20-03-2008,114.9189,100.44
20-03-2008,114.9189,100.44
20-03-2008,114.9189,100.44
25-03-2008,118.9341,103.7
26-03-2008,118.5947,103.29
27-03-2008,119.9398,104.41
28-03-2008,119.3458,104.15
31-03-2008,118.9285,103.85
01-04-2008,123.2025,106.94
02-04-2008,124.413,108.14
03-04-2008,123.2815,107.72
04-04-2008,124.0307,108.3
07-04-2008,125.1954,109.22
08-04-2008,123.8888,108.84
09-04-2008,122.9693,108.07
10-04-2008,122.5814,107.75
11-04-2008,121.1235,106.13
14-04-2008,119.904,105.39
15-04-2008,120.4098,105.99
16-04-2008,122.6524,107.6
17-04-2008,122.1963,106.94
18-04-2008,124.7982,109.15
21-04-2008,123.4645,108.21
22-04-2008,122.6296,107.37
23-04-2008,123.4832,108.19
24-04-2008,123.0211,108
25-04-2008,124.4927,108.91
28-04-2008,125.0909,109.48
29-04-2008,124.1405,109.22
30-04-2008,125.0734,110.06
30-04-2008,125.0734,110.06
02-05-2008,127.735,111.39
05-05-2008,127.4897,111.36
06-05-2008,126.5132,110.71
07-05-2008,127.9555,111.46
08-05-2008,127.5503,111.01
09-05-2008,126.4335,109.48
12-05-2008,126.7981,109.95
13-05-2008,127.0496,110.05
14-05-2008,128.2031,111.26
15-05-2008,127.9648,111.12
16-05-2008,128.5368,111.49
19-05-2008,129.4266,112.27
20-05-2008,126.8861,110.73
21-05-2008,125.6808,110.23
22-05-2008,125.9675,110.03
23-05-2008,123.5644,108.11
26-05-2008,123.3161,108.11
27-05-2008,123.1216,107.61
28-05-2008,124.3205,108.58
29-05-2008,124.3087,109.01
30-05-2008,125.4452,109.54
02-06-2008,123.43,107.89
03-06-2008,124.6059,108.41
04-06-2008,123.6858,107.08
05-06-2008,123.1562,106.73
06-06-2008,120.066,104.59
09-06-2008,119.1475,104.82
10-06-2008,118.3128,104.13
11-06-2008,116.3249,102.38
12-06-2008,117.3269,103.1
13-06-2008,118.04,103.57
16-06-2008,117.264,102.86
17-06-2008,117.4598,103.55
18-06-2008,115.2896,102.15
19-06-2008,113.8956,101.77
20-06-2008,111.6198,100.03
23-06-2008,110.9141,100.2
24-06-2008,110.299,99.56
25-06-2008,112.1521,100.86
26-06-2008,108.9821,98.44
27-06-2008,108.0272,97.88
30-06-2008,108.4292,98.43
01-07-2008,106.3067,96.59
02-07-2008,105.9873,96.26
03-07-2008,107.0883,97.13
04-07-2008,105.3685,95.59
07-07-2008,106.6751,97.34
08-07-2008,105.2478,96.05
09-07-2008,107.1772,97.32
10-07-2008,104.8693,95.63
11-07-2008,101.3447,93.5
14-07-2008,102.046,93.88
15-07-2008,99.249,91.83
16-07-2008,101.1041,92.32
17-07-2008,104.3694,94.32
18-07-2008,106.2496,95.83
21-07-2008,106.4061,96.22
22-07-2008,105.048,96.31
23-07-2008,107.4534,97.77
24-07-2008,105.4614,96.65
25-07-2008,105.6756,96.7
28-07-2008,104.2426,95.84
29-07-2008,104.4695,96.27
30-07-2008,105.5347,97.57
31-07-2008,105.33,97.5